Погода в Заболотье

Россия / Тверская область     58°07′58″N   35°44′35″E
темп.,
°C
ветер,
м/с
пор.,
м/с
влажн.,
%
обл.,
%
осадки,
мм/ч
давл.,
гПа
погр.,
м
6 марта, сб
сб600:00−11зсз239679 0.0 101474
03:00−11зсз249786 0.1 1015118
06:00−12зсз239790 0.1 101573
09:00−11зсз259581 0.1 1016199
12:00−6зсз258384 0.0 1015706
15:00−5зюз357692 0.1 10131086
18:00−8ююз368866 0.0 1011126
21:00−7ююз4128378 0.0 1008605
7 марта, вс
вс700:00−6ююз61292100 0.3 1001923
03:00−5ююз61393100 1.4 996997
06:00−3юз61294100 1.7 9911064
09:00−3з5995100 3.2 989736
12:00−4зсз4774100 0.4 9891091
15:00−5зсз5873100 0.6 9901355
18:00−9зюз118525 0.1 99121
21:00−12с118851 0.1 99221
8 марта, пн
пн800:00−13ссз129081 0.0 99320
03:00−14сз369241 0.0 994128
06:00−11сз41093100 0.1 996530
09:00−9с51091100 0.5 998795
12:00−9ссз5986100 0.2 1001859
15:00−8ссз5885100 0.3 10041028
18:00−11ссз4990100 0.1 1007709
21:00−14с41093100 0.2 1010567
9 марта, вт
вт900:00−18ссз3896100 0.0 1013306
03:00−21сз389797 0.1 1015212
06:00−24сз259826 0.0 1016116
09:00−22ссз259526 0.0 1018232
12:00−16ссз238137 0.0 1018452
15:00−13ссз247958 0.0 1018701
18:00−16ссв229195 0.0 101820
21:00−21св229658 0.0 102020
10 марта, ср
ср1000:00−23св22970 0.0 102221
03:00−25ссв22980 0.0 102324
06:00−27ссв22980 0.0 102435
09:00−25ссв25950 0.0 1026199
12:00−19св23810 0.0 1026403
15:00−16св23740 0.0 1026591
18:00−18ссв128930 0.0 102620
21:00−21всв119265 0.0 102720